Wind_Speed
21 21 16 12 4 6 7 8 5 11 10 8 27 21 30 16 8 7 12 25 21 18 14 13 17 18 16 13 12 12 13 13 13 13 13 13 12 13 15 16 17 17 16 16 17 18 18 19 19
19 18 17 5 5 6 10 8 15 10 7 21 23 21 28 25 22 12 20 21 17 17 14 13 16 17 15 13 12 11 11 11 10 10 11 11 11 12 14 15 16 17 15 17 16 17 17 18 20
19 14 6 4 6 11 10 7 10 8 4 13 10 18 9 9 19 14 19 19 20 20 14 15 15 14 14 12 11 9 10 9 9 8 9 10 11 12 13 15 16 15 13 15 15 16 17 18 18
11 6 5 7 21 19 18 18 22 21 26 19 12 17 7 21 17 18 18 17 27 18 15 15 14 13 12 11 9 8 8 8 8 8 7 8 9 11 12 13 12 14 14 14 15 16 17 16 17
17 5 4 17 19 17 15 19 20 28 17 20 20 11 6 21 27 17 18 24 26 18 15 15 13 11 10 9 7 6 7 7 7 7 8 8 10 10 10 10 11 11 11 12 14 15 14 14 15
7 11 13 15 16 17 15 20 26 25 21 9 21 12 5 17 27 26 20 20 19 16 15 13 12 10 8 7 6 5 5 6 7 7 6 8 10 10 8 9 9 8 9 11 12 12 12 12 11
14 8 22 20 14 16 18 22 21 24 20 21 17 12 8 27 23 24 30 21 16 15 12 11 10 8 7 6 6 6 5 4 5 6 6 7 9 8 8 7 5 5 7 9 10 10 10 9 8
11 4 22 20 13 15 21 24 25 24 27 27 16 14 10 15 22 25 28 23 22 21 11 9 8 6 6 4 5 5 5 5 4 5 6 6 7 7 7 5 4 5 6 8 8 8 7 7 7
16 10 15 17 14 15 19 21 23 23 25 26 24 22 16 18 29 36 33 32 27 25 24 20 16 6 4 1 4 3 3 4 5 4 6 7 5 5 4 4 3 3 4 6 6 6 6 6 6
7 16 22 17 16 12 20 18 21 23 23 23 21 23 25 25 26 29 27 23 29 29 26 25 15 11 4 1 1 2 1 1 3 1 4 7 10 4 8 7 5 4 3 5 5 5 5 6 5
16 18 19 14 15 17 20 23 23 19 21 19 19 18 23 24 24 24 19 22 23 24 27 27 20 13 7 7 5 5 7 8 4 7 7 7 10 8 9 7 8 6 5 7 7 7 8 8 11
25 20 18 13 14 14 19 20 23 20 16 15 16 21 22 22 23 22 22 23 24 25 27 26 24 20 16 14 9 11 6 8 9 11 12 10 9 10 12 14 9 8 10 10 8 7 4 8 7
22 20 18 16 15 17 19 21 18 17 13 16 18 20 18 20 21 22 21 21 23 24 25 25 23 25 22 17 15 13 14 8 12 11 13 12 13 13 12 16 14 14 16 14 13 17 10 10 8
17 17 14 14 14 14 18 18 13 12 11 14 14 16 19 22 22 21 23 22 24 23 23 23 22 24 22 21 21 17 16 15 12 12 13 16 17 17 16 16 16 16 17 16 18 13 16 13 13
18 19 13 9 5 6 13 16 13 10 11 13 14 14 16 21 22 22 22 23 25 24 24 24 22 25 25 21 21 20 18 17 18 18 17 14 18 22 18 18 18 19 16 17 16 14 14 8 12
10 10 7 6 1 3 6 11 10 7 11 13 14 13 15 19 22 22 22 23 25 25 25 25 24 26 25 23 22 20 20 18 16 17 21 21 19 21 23 20 19 19 20 19 18 15 14 15 14
7 7 14 8 3 1 3 11 9 6 10 11 12 13 12 13 20 21 22 22 23 24 25 26 25 28 26 25 23 21 20 21 22 22 16 20 27 23 23 23 24 20 21 21 19 20 18 18 19
8 7 7 9 3 10 14 12 8 7 9 10 11 11 12 13 16 19 20 20 21 23 24 25 26 28 26 26 25 24 22 22 19 20 23 23 22 20 24 23 24 25 22 23 22 22 22 22 18
9 12 11 8 2 4 10 11 9 5 8 9 10 10 11 12 16 17 18 19 20 22 23 25 26 28 27 28 26 26 26 25 21 18 29 24 25 26 18 12 27 30 26 23 23 23 26 22 23
6 10 9 8 2 5 8 10 9 7 7 6 8 9 10 10 13 15 16 18 18 21 21 23 24 25 26 27 24 25 25 23 21 26 27 28 26 27 25 14 34 51 29 28 23 25 23 28 23
13 12 6 6 1 2 5 11 11 8 8 9 9 8 9 10 10 14 16 14 15 19 21 21 22 22 24 26 25 25 23 23 23 25 24 28 28 28 27 24 17 30 23 27 24 31 25 23 25
4 5 3 3 5 1 4 2 13 13 11 7 7 6 6 7 9 12 14 16 14 16 18 20 20 20 21 23 23 25 23 23 23 24 25 23 24 25 27 27 23 15 19 47 39 25 30 29 25
5 3 4 5 7 6 9 5 10 11 10 10 7 3 4 6 9 13 16 15 15 14 16 20 20 19 20 21 22 22 22 22 22 21 23 23 23 24 24 30 32 23 19 19 21 37 28 30 30
2 2 2 3 5 4 3 2 9 6 7 4 7 6 7 9 11 16 16 17 14 15 15 16 18 18 18 20 21 22 23 25 24 24 22 23 22 23 21 28 31 30 28 29 20 21 31 35 33
3 2 2 3 3 2 6 2 9 7 5 4 5 4 8 10 8 11 11 16 16 13 12 13 17 18 18 19 20 21 22 23 23 23 22 22 21 22 25 26 29 28 32 29 27 21 23 29 20
4 4 2 3 3 5 6 6 6 6 5 4 0 7 7 8 7 11 13 10 14 11 9 12 14 18 18 18 19 19 21 21 21 22 22 20 21 23 22 24 26 25 27 29 30 27 22 21 30
3 2 3 3 4 3 5 6 6 8 7 4 1 3 5 5 6 9 11 12 11 11 9 10 11 14 16 17 17 18 21 21 21 22 21 20 20 21 23 21 20 24 23 27 21 25 23 20 20
5 3 2 2 0 3 6 10 2 11 8 5 1 4 4 5 6 8 10 10 7 9 10 8 9 12 14 16 17 17 18 20 21 21 21 21 22 21 22 22 20 19 20 24 24 27 28 27 24
3 2 2 1 3 3 3 2 7 9 6 1 3 2 4 5 6 7 8 9 11 10 10 7 9 12 14 17 17 17 17 18 20 20 22 22 22 22 21 20 21 20 19 19 24 26 23 24 27
3 1 6 2 3 4 4 5 7 8 4 2 4 5 3 5 6 9 9 8 10 11 11 11 10 11 13 17 18 17 16 17 18 20 21 23 22 21 21 19 18 19 20 18 18 20 24 24 22
Wind_Direction
307 307 288 256 246 223 74 84 51 50 89 53 87 80 75 83 66 94 84 89 90 95 92 105 111 114 118 118 117 115 113 109 108 112 108 106 103 105 106 106 106 105 103 101 101 105 103 102 102
303 305 274 272 249 200 64 32 72 68 97 90 57 76 63 49 85 77 89 91 98 96 93 104 116 115 117 120 120 114 114 113 110 113 108 109 105 108 111 109 105 101 102 105 107 109 108 107 110
292 265 288 221 30 79 101 32 103 103 131 125 84 52 36 10 72 96 94 103 100 89 95 104 114 112 114 120 120 112 113 115 115 113 108 110 108 112 112 109 108 109 111 106 111 113 116 117 114
279 218 245 77 67 42 24 22 18 40 34 51 94 61 66 12 345 85 91 91 91 86 90 100 103 108 110 114 113 110 112 116 119 119 115 115 116 118 115 118 120 121 111 114 116 120 123 119 122
263 263 81 85 73 59 24 41 50 54 48 20 69 67 34 352 354 74 80 74 85 87 87 96 101 107 110 110 104 108 114 118 120 123 119 122 127 125 125 126 119 114 116 119 124 126 128 124 125
271 234 107 92 84 67 42 42 67 56 89 87 68 86 15 344 11 0 83 81 79 90 86 85 94 97 99 102 101 102 109 118 124 132 121 129 135 134 129 127 117 107 117 123 128 132 133 130 131
267 293 104 98 90 72 58 59 54 65 53 69 68 84 46 17 19 30 53 81 95 87 83 86 78 87 90 97 107 112 115 116 124 138 135 138 141 141 134 131 111 106 126 136 138 140 141 139 135
288 111 111 105 91 87 84 70 70 66 65 56 51 52 49 29 41 51 56 50 53 53 75 103 85 76 50 95 109 121 131 132 135 143 151 151 153 151 146 128 120 102 125 145 148 155 158 154 143
300 130 92 95 94 106 94 84 75 74 73 61 61 64 86 96 48 45 38 39 36 34 36 40 50 72 97 31 116 124 149 153 151 158 165 163 145 162 162 167 162 128 131 152 161 166 168 158 141
314 93 91 88 76 61 52 64 81 69 61 63 64 59 56 51 63 60 46 42 37 26 25 21 24 21 36 184 130 87 214 166 147 191 189 161 179 189 200 212 206 184 168 177 172 169 169 153 125
76 101 100 82 114 101 78 63 50 67 58 54 52 57 57 52 48 58 64 55 44 36 30 24 14 7 337 1 331 192 213 187 198 211 246 202 207 208 205 226 224 216 203 190 185 180 171 174 195
90 88 97 90 75 77 77 76 64 60 61 61 63 56 52 52 43 43 46 41 41 34 26 27 19 6 353 338 314 290 275 200 209 208 226 240 226 218 217 221 208 204 212 192 195 212 217 246 241
95 95 93 97 93 89 88 75 71 62 66 52 61 64 63 53 50 39 40 44 38 34 22 20 22 16 6 339 327 307 290 282 254 225 217 230 243 238 224 231 211 210 212 203 204 214 211 205 218
121 114 113 105 103 95 80 62 70 57 57 64 57 60 53 54 49 37 32 32 37 31 24 16 18 8 10 2 341 320 304 280 281 245 240 233 234 247 230 236 233 227 221 212 214 224 212 199 221
121 111 92 98 59 107 113 62 56 63 66 64 61 55 57 44 41 39 32 27 36 24 20 16 14 6 9 3 355 349 320 294 274 270 261 252 240 233 257 234 237 233 234 232 227 223 238 224 220
145 161 123 57 224 113 237 91 71 54 76 68 60 58 58 50 43 35 34 25 34 21 19 16 16 10 6 3 358 353 350 335 312 291 274 265 250 244 240 253 245 239 239 236 235 234 232 239 246
187 87 104 88 54 118 222 105 92 83 80 69 60 55 49 54 48 39 32 24 31 22 19 16 15 12 7 3 358 358 356 348 339 327 330 302 268 254 241 240 243 244 237 235 229 225 232 233 228
115 95 71 100 22 86 85 109 112 91 77 80 68 57 46 46 46 42 34 32 31 25 19 18 15 13 11 4 359 357 356 353 352 351 357 332 326 286 258 248 250 250 249 236 233 224 224 234 238
92 105 103 102 313 90 121 131 117 97 82 62 66 54 45 32 39 33 41 32 33 25 19 18 14 12 13 3 359 357 349 344 351 355 344 338 347 348 304 288 277 258 249 241 238 235 225 228 229
86 123 97 106 101 247 160 134 127 124 104 79 54 53 48 38 26 25 24 24 29 26 19 16 13 15 15 4 0 357 345 352 354 359 353 358 356 347 349 301 254 288 250 247 242 245 231 230 230
44 37 33 20 72 307 199 156 158 150 128 104 72 50 44 31 16 8 3 21 10 31 16 11 9 15 15 8 2 357 359 359 359 355 355 353 357 356 350 338 316 274 295 258 246 245 248 236 226
107 20 327 287 256 267 199 104 179 159 149 129 101 76 44 13 11 1 351 345 355 36 13 7 3 11 13 10 6 3 2 356 352 353 354 349 357 356 351 354 354 290 312 282 261 246 238 243 237
55 346 331 313 280 324 198 256 121 153 177 143 110 75 40 341 8 358 346 336 336 34 22 7 357 4 13 10 6 3 359 351 354 360 357 360 352 359 351 348 347 343 341 327 297 265 254 238 236
69 264 230 261 274 263 138 328 144 153 65 60 81 46 3 2 10 1 354 345 336 21 17 13 358 356 10 9 5 2 357 351 352 0 359 356 359 352 351 345 345 346 340 347 330 281 260 275 252
233 339 259 209 177 256 106 275 82 92 83 56 38 2 20 27 20 357 359 359 7 12 1 10 357 353 7 7 3 0 358 353 351 357 354 355 358 355 346 347 345 344 340 340 335 330 294 267 265
20 338 351 251 315 12 153 241 134 107 107 87 79 32 34 27 16 357 3 358 0 354 360 18 357 353 2 3 359 357 357 354 349 349 349 352 355 349 353 348 341 341 341 338 341 336 335 325 286
59 64 12 294 232 271 257 102 171 155 136 134 47 38 29 13 9 5 346 40 348 330 355 16 352 354 359 359 355 355 353 350 347 345 349 350 349 345 345 351 348 339 342 351 350 347 340 340 355
9 65 205 58 227 258 280 305 193 167 169 138 356 29 1 7 354 356 352 356 326 349 342 360 344 352 353 353 353 352 348 346 344 344 346 348 347 347 344 346 356 352 345 350 356 354 353 349 337
137 132 72 283 288 276 302 61 56 112 103 54 326 4 329 340 329 332 340 337 327 331 340 340 343 342 347 345 348 348 345 344 343 342 343 345 344 346 345 347 352 351 354 349 347 350 351 350 349
326 171 176 228 192 254 312 286 82 101 86 292 295 299 273 292 311 321 321 319 315 318 327 328 329 329 343 336 341 340 341 341 341 341 341 342 341 344 344 346 348 347 348 351 1 357 350 346 342
Height
781 779 774 771 790 774 772 772 751 762 766 758 765 782 800 812 810 840 814 818 822 825 830 830 829 830 833 837 840 842 842 844 846 847 848 848 849 849 849 849 850 851 851 852 853 854 854 855 856
780 779 772 769 787 782 789 762 771 766 762 762 776 785 798 819 807 813 818 824 829 830 834 834 834 833 836 839 842 844 845 847 849 850 851 851 852 853 853 853 853 854 854 855 856 856 857 858 859
779 779 777 769 778 788 794 769 767 762 758 760 788 798 809 825 814 818 824 828 830 833 837 838 839 839 840 842 845 847 848 849 851 853 854 854 855 856 856 857 857 857 857 858 858 859 860 861 861
777 770 771 780 797 791 790 779 779 777 788 780 784 814 825 832 828 825 827 830 832 839 840 841 842 844 845 847 849 850 851 852 853 854 856 857 858 859 859 860 860 860 860 861 861 862 863 863 864
775 765 778 795 807 799 792 786 796 801 812 816 804 835 838 836 831 829 831 833 837 844 845 844 846 848 849 850 852 853 853 855 856 857 858 859 861 862 863 863 863 863 863 863 864 864 865 866 866
778 759 787 817 818 810 801 798 803 813 828 826 819 839 856 847 838 834 833 839 843 846 848 848 849 850 852 853 854 856 857 857 858 859 860 861 862 864 865 865 865 865 865 866 866 867 868 868 868
776 770 796 815 826 825 817 809 818 827 826 827 830 843 859 845 847 842 836 841 846 849 851 852 853 853 854 855 856 857 858 860 861 861 862 864 864 865 866 867 868 868 867 867 868 869 870 870 870
774 768 796 812 831 836 823 824 829 833 836 832 830 853 862 858 854 848 843 845 847 850 854 853 854 856 856 857 858 859 859 861 863 863 864 865 866 866 867 868 869 869 869 870 870 870 871 871 871
767 786 816 829 832 831 824 832 832 835 838 839 845 850 857 860 856 851 851 852 853 853 853 854 856 859 859 859 860 861 862 863 864 865 865 866 867 868 868 869 869 870 870 871 872 872 872 873 873
773 801 825 827 831 838 832 832 836 844 849 853 856 858 861 860 858 860 862 864 863 861 859 859 858 859 860 861 860 861 863 863 865 865 866 867 868 868 869 869 870 870 870 871 872 873 873 873 874
790 817 823 832 833 837 844 847 845 849 858 861 863 862 865 864 863 864 867 869 870 870 867 864 863 862 861 863 865 862 862 863 864 866 867 867 869 869 869 869 869 870 870 870 871 872 872 872 873
815 818 831 837 839 845 852 854 858 860 866 864 865 866 867 867 869 869 871 871 872 872 871 869 866 864 863 862 862 863 866 863 864 864 866 867 869 869 869 868 867 868 868 868 869 870 871 871 873
828 835 840 844 847 850 853 862 864 868 868 868 866 869 871 873 875 875 875 875 876 875 874 872 870 867 866 863 862 862 863 865 865 864 864 867 867 868 868 867 867 867 867 868 867 867 868 870 872
837 843 845 846 852 852 859 865 864 871 868 869 870 871 873 876 879 880 879 879 879 880 879 876 874 871 868 866 863 862 861 863 863 863 863 862 866 866 866 867 867 866 866 866 866 866 865 866 868
837 847 848 849 850 857 854 876 879 871 872 873 874 875 878 881 883 884 884 883 883 883 883 880 877 874 871 868 866 864 862 861 860 862 861 861 861 864 864 864 865 865 864 864 864 864 864 864 864
842 839 854 860 855 855 857 886 880 874 875 877 877 878 881 886 888 889 889 887 887 887 885 882 881 877 874 870 867 865 863 861 859 858 859 859 859 859 861 862 862 863 863 863 862 863 863 863 862
840 851 864 866 854 854 857 881 880 876 877 882 882 884 886 888 891 893 893 891 890 889 887 885 883 879 876 873 869 866 864 861 859 857 857 856 856 856 855 857 858 858 857 859 860 861 862 862 861
845 852 856 864 865 859 870 882 880 878 880 883 886 888 890 891 894 895 895 894 893 892 890 888 885 882 879 875 871 868 866 864 862 860 857 854 848 842 848 854 856 856 853 853 855 856 858 859 859
835 849 867 871 867 862 871 878 883 881 882 886 888 891 893 894 895 897 897 896 894 893 892 889 887 884 880 877 873 870 867 865 864 861 859 856 850 844 831 834 852 856 850 849 850 852 854 854 855
841 852 869 869 868 866 869 878 880 882 887 889 891 893 895 896 897 897 896 896 895 895 894 891 889 887 884 882 878 875 871 868 866 863 859 857 853 847 847 849 846 851 849 846 845 847 848 850 851
870 867 872 873 871 865 867 876 882 884 885 889 893 895 897 899 899 899 898 897 897 895 895 894 891 889 887 884 880 877 874 870 868 865 862 858 854 851 848 849 848 845 820 843 842 842 842 844 846
865 880 878 874 873 869 864 874 874 880 885 889 892 896 899 899 899 900 899 897 896 895 897 896 893 891 889 886 883 879 876 873 871 869 866 860 856 852 848 845 845 844 838 838 839 836 835 837 840
885 881 878 875 873 869 866 873 872 874 880 882 889 894 896 898 898 899 899 898 896 895 895 895 894 892 890 888 885 882 879 876 874 870 867 863 859 854 848 842 837 836 838 838 835 835 834 833 833
883 878 875 874 871 887 863 876 879 878 881 885 886 891 895 896 898 899 899 898 895 895 896 897 897 894 892 890 887 884 880 876 874 871 868 866 862 857 850 843 837 831 827 826 827 821 824 833 831
878 883 890 890 892 888 870 879 885 886 885 888 892 894 894 898 900 901 899 898 898 897 898 897 897 895 892 890 888 885 881 878 875 873 870 866 863 860 855 848 840 833 828 824 823 821 818 818 816
889 889 899 904 886 877 872 880 895 882 884 887 890 893 896 899 901 900 900 899 900 899 898 897 897 894 892 891 888 885 882 878 876 874 871 868 865 862 858 853 844 837 832 827 822 820 819 816 814
892 897 903 906 893 900 867 882 882 879 883 887 890 892 896 898 899 899 900 899 900 898 896 896 896 895 893 891 888 884 881 879 876 873 871 868 866 862 858 856 850 842 834 830 825 822 821 815 813
900 902 910 920 914 910 877 867 866 882 883 885 889 893 896 897 898 898 899 898 898 897 895 894 895 894 892 890 887 884 882 879 875 872 868 866 864 862 858 854 850 846 839 833 827 824 820 815 815
906 910 913 912 912 910 897 878 868 875 883 889 890 892 895 897 897 897 897 897 896 895 893 892 892 892 890 889 886 884 882 879 875 871 867 864 862 860 857 853 849 846 843 838 831 826 823 819 814
901 902 910 918 920 914 907 898 874 881 888 890 891 892 893 896 896 895 895 894 894 893 891 890 889 889 888 887 885 883 881 878 875 871 866 862 859 857 855 851 848 845 841 838 835 831 825 820 818